Flag for Canada Weather past 2 weeks in Glace Bay, Nova Scotia, Canada

Now
30 °F

Snow. Ice fog.


Feels Like: 20 °F
Forecast: 28 / 34 °F
Wind: 14 mph from Southeast

Location: Sydney

Current Time: Mar 31, 2015 at 12:56:43 PM

Latest Report: Mar 31, 2015 at 12:00 PM


Visibility: 0 mi

Pressure: 29.52 "Hg

Humidity: 100%

Dew point: 30 °F

Location of Glace BayLocation

Historic Weather in Glace Bay — Graph

°F

Glace Bay temperature yesterday

Maximum temperature yesterday: 36 °F (at 1:00 PM)
Minimum temperature yesterday: 14 °F (at 5:00 AM)
Average temperature yesterday: 26 °F

Past Weeks' High & Low Weather Summary

 TemperatureHumidityPressure
High39 °F (Mar 26, 6:00 PM)100% (Mar 17, 10:00 PM)30.27 "Hg (Mar 17, 10:00 PM)
Low9 °F (Mar 23, 7:00 AM)37% (Mar 25, 12:00 PM)28.64 "Hg (Mar 22, 8:50 AM)
Average26 °F81%29.71 "Hg
* Reported Mar 16 11:00 AM — Mar 31 11:00 AM, Glace Bay, Weather by CustomWeather, © 2015

Note: Actual official high and low records may vary slightly from our data, if they occured in-between our weather recording intervals... More about our weather records

Advertising

Glace Bay weather history for previous 24 hours

 ConditionsComfort  
Time TempWeatherWind HumidityBarometerVisibility
11:00 AM
Tue, Mar 31
30 °FSnow. Ice fog.15 mph93%29.56 "Hg1 mi
10:56 AM30 °FSnow. Ice fog.17 mph93%29.56 "Hg1 mi
10:00 AM30 °FLight snow. Broken clouds.14 mph86%29.58 "Hg8 mi
9:00 AM30 °FPartly sunny.10 mph86%29.62 "Hg10 mi
8:00 AM28 °FBroken clouds.12 mph86%29.66 "Hg10 mi
7:00 AM25 °FPassing clouds.9 mph93%29.68 "Hg10 mi
6:00 AM27 °FPartly cloudy.12 mph93%29.69 "Hg15 mi
5:00 AM27 °FPassing clouds.9 mph93%29.72 "Hg15 mi
4:00 AM28 °FOvercast.9 mph80%29.75 "Hg15 mi
3:00 AM28 °FPassing clouds.9 mph86%29.77 "Hg15 mi
2:00 AM28 °FPassing clouds.9 mph86%29.81 "Hg15 mi
1:00 AM27 °FPassing clouds.10 mph93%29.83 "Hg15 mi
12:00 AM28 °FPassing clouds.8 mph86%29.85 "Hg15 mi
11:00 PM
Mon, Mar 30
28 °FPassing clouds.9 mph80%29.87 "Hg15 mi
10:00 PM28 °FPassing clouds.9 mph80%29.90 "Hg15 mi
9:00 PM28 °FPassing clouds.8 mph80%29.91 "Hg15 mi
8:00 PM28 °FPartly sunny.9 mph80%29.91 "Hg15 mi
7:00 PM30 °FPartly sunny.12 mph69%29.93 "Hg15 mi
6:00 PM34 °FScattered clouds.13 mph56%29.93 "Hg15 mi
5:00 PM34 °FScattered clouds.15 mph56%29.93 "Hg15 mi
4:00 PM34 °FScattered clouds.13 mph56%29.96 "Hg15 mi
3:00 PM36 °FPartly sunny.12 mph52%29.98 "Hg15 mi
2:00 PM36 °FPassing clouds.13 mph48%29.97 "Hg15 mi
1:00 PM36 °FScattered clouds.9 mph44%30.00 "Hg15 mi
12:00 PM34 °FScattered clouds.13 mph56%30.03 "Hg15 mi
Weather by CustomWeather, © 2015

See weather overviewHow to use our weather pages